^^
TXWeather Station Historical Data
Daily Summary for March 05, 2022 Units:  English    Metric   Both
Daily Weekly Monthly Yearly Custom
  High: Low: Average:
Temperature: 82.0 °F 66.0 °F 73.3 °F
Dew Point: 68.0 °F 62.0 °F 65.3 °F
Humidity: 89% 58% 77%
Wind Speed: 29mph 5mph 13.7mph
Wind Gust: 29mph - -
Wind- - SSE
Pressure: 30.1 in 30.0 in -
Precipitation: 0.000 in    
Historical Graphs
 
 
Tabular Data for March 05, 2022
Time Temperature Dew Point Pressure Wind Wind Speed Wind Gust Humidity Rainfall Rate (Hourly) solar
00:04 66.0 °F 62.0 °F 30.1 in SE 9 mph 9 mph 87% 0.000 in 0.00 W/m2
00:09 66.0 °F 62.0 °F 30.1 in SE 9 mph 10 mph 87% 0.000 in 0.00 W/m2
00:14 66.0 °F 62.0 °F 30.1 in SE 9 mph 9 mph 87% 0.000 in 0.00 W/m2
00:19 66.0 °F 62.0 °F 30.1 in SSE 10 mph 11 mph 87% 0.000 in 0.00 W/m2
00:24 66.0 °F 62.0 °F 30.1 in SSE 11 mph 11 mph 87% 0.000 in 0.00 W/m2
00:29 67.0 °F 63.0 °F 30.1 in SE 10 mph 10 mph 87% 0.000 in 0.00 W/m2
00:34 67.0 °F 63.0 °F 30.1 in SE 10 mph 10 mph 87% 0.000 in 0.00 W/m2
00:39 67.0 °F 63.0 °F 30.1 in SE 12 mph 12 mph 87% 0.000 in 0.00 W/m2
00:44 67.0 °F 62.0 °F 30.1 in SSE 9 mph 12 mph 86% 0.000 in 0.00 W/m2
00:49 67.0 °F 62.0 °F 30.1 in SE 10 mph 12 mph 86% 0.000 in 0.00 W/m2
00:54 67.0 °F 62.0 °F 30.1 in SE 11 mph 11 mph 86% 0.000 in 0.00 W/m2
00:59 67.0 °F 63.0 °F 30.1 in SE 9 mph 11 mph 86% 0.000 in 0.00 W/m2
01:04 67.0 °F 63.0 °F 30.1 in SSE 10 mph 10 mph 86% 0.000 in 0.00 W/m2
01:09 67.0 °F 63.0 °F 30.1 in SE 9 mph 10 mph 86% 0.000 in 0.00 W/m2
01:14 67.0 °F 63.0 °F 30.1 in SE 10 mph 11 mph 86% 0.000 in 0.00 W/m2
01:19 67.0 °F 63.0 °F 30.1 in SE 8 mph 11 mph 86% 0.000 in 0.00 W/m2
01:24 67.0 °F 63.0 °F 30.1 in SSE 9 mph 9 mph 86% 0.000 in 0.00 W/m2
01:29 67.0 °F 63.0 °F 30.1 in SSE 9 mph 9 mph 86% 0.000 in 0.00 W/m2
01:34 67.0 °F 63.0 °F 30.1 in SE 10 mph 10 mph 86% 0.000 in 0.00 W/m2
01:39 67.0 °F 63.0 °F 30.1 in SE 12 mph 12 mph 86% 0.000 in 0.00 W/m2
01:44 67.0 °F 63.0 °F 30.1 in SE 10 mph 10 mph 86% 0.000 in 0.00 W/m2
01:49 67.0 °F 63.0 °F 30.1 in SE 8 mph 9 mph 86% 0.000 in 0.00 W/m2
01:54 67.0 °F 63.0 °F 30.1 in SE 8 mph 8 mph 86% 0.000 in 0.00 W/m2
01:59 67.0 °F 63.0 °F 30.1 in SE 7 mph 9 mph 86% 0.000 in 0.00 W/m2
02:04 67.0 °F 63.0 °F 30.1 in SE 9 mph 10 mph 86% 0.000 in 0.00 W/m2
02:09 67.0 °F 63.0 °F 30.1 in SE 10 mph 10 mph 86% 0.000 in 0.00 W/m2
02:14 67.0 °F 63.0 °F 30.1 in SE 8 mph 11 mph 86% 0.000 in 0.00 W/m2
02:19 67.0 °F 63.0 °F 30.1 in SE 9 mph 11 mph 86% 0.000 in 0.00 W/m2
02:24 67.0 °F 63.0 °F 30.1 in SE 9 mph 11 mph 86% 0.000 in 0.00 W/m2
02:29 67.0 °F 63.0 °F 30.1 in SE 10 mph 11 mph 86% 0.000 in 0.00 W/m2
02:34 67.0 °F 63.0 °F 30.1 in SE 9 mph 10 mph 86% 0.000 in 0.00 W/m2
02:39 67.0 °F 63.0 °F 30.1 in SE 9 mph 11 mph 86% 0.000 in 0.00 W/m2
02:44 67.0 °F 63.0 °F 30.1 in SE 9 mph 11 mph 86% 0.000 in 0.00 W/m2
02:49 67.0 °F 63.0 °F 30.1 in SE 10 mph 10 mph 86% 0.000 in 0.00 W/m2
02:54 67.0 °F 63.0 °F 30.1 in SE 11 mph 11 mph 87% 0.000 in 0.00 W/m2
02:59 67.0 °F 63.0 °F 30.1 in SE 8 mph 11 mph 87% 0.000 in 0.00 W/m2
03:04 67.0 °F 63.0 °F 30.1 in SE 9 mph 9 mph 87% 0.000 in 0.00 W/m2
03:09 67.0 °F 63.0 °F 30.1 in SE 11 mph 12 mph 87% 0.000 in 0.00 W/m2
03:14 67.0 °F 63.0 °F 30.1 in SSE 9 mph 10 mph 87% 0.000 in 0.00 W/m2
03:19 67.0 °F 63.0 °F 30.1 in SE 10 mph 10 mph 87% 0.000 in 0.00 W/m2
03:24 67.0 °F 63.0 °F 30.1 in SE 7 mph 9 mph 87% 0.000 in 0.00 W/m2
03:29 67.0 °F 63.0 °F 30.1 in SE 9 mph 9 mph 87% 0.000 in 0.00 W/m2
03:34 68.0 °F 64.0 °F 30.1 in SE 8 mph 8 mph 87% 0.000 in 0.00 W/m2
03:39 68.0 °F 64.0 °F 30.1 in SE 8 mph 11 mph 87% 0.000 in 0.00 W/m2
03:44 68.0 °F 64.0 °F 30.1 in SE 8 mph 11 mph 87% 0.000 in 0.00 W/m2
03:49 68.0 °F 64.0 °F 30.0 in SE 10 mph 10 mph 87% 0.000 in 0.00 W/m2
03:54 68.0 °F 64.0 °F 30.0 in SE 12 mph 12 mph 87% 0.000 in 0.00 W/m2
03:59 68.0 °F 64.0 °F 30.0 in SE 9 mph 12 mph 87% 0.000 in 0.00 W/m2
04:04 68.0 °F 64.0 °F 30.0 in SE 10 mph 10 mph 87% 0.000 in 0.00 W/m2
04:09 68.0 °F 64.0 °F 30.0 in SE 10 mph 10 mph 87% 0.000 in 0.00 W/m2
04:14 68.0 °F 64.0 °F 30.0 in SE 9 mph 9 mph 87% 0.000 in 0.00 W/m2
04:19 68.0 °F 64.0 °F 30.0 in SE 10 mph 10 mph 88% 0.000 in 0.00 W/m2
04:24 68.0 °F 64.0 °F 30.0 in SE 8 mph 8 mph 88% 0.000 in 0.00 W/m2
04:29 68.0 °F 64.0 °F 30.0 in SE 9 mph 11 mph 88% 0.000 in 0.00 W/m2
04:34 68.0 °F 64.0 °F 30.0 in SE 13 mph 13 mph 88% 0.000 in 0.00 W/m2
04:39 68.0 °F 64.0 °F 30.0 in SE 13 mph 13 mph 88% 0.000 in 0.00 W/m2
04:44 68.0 °F 64.0 °F 30.0 in SE 12 mph 14 mph 88% 0.000 in 0.00 W/m2
04:49 68.0 °F 64.0 °F 30.0 in SE 12 mph 12 mph 88% 0.000 in 0.00 W/m2
04:54 68.0 °F 64.0 °F 30.0 in SSE 14 mph 14 mph 88% 0.000 in 0.00 W/m2
04:59 68.0 °F 64.0 °F 30.0 in SSE 14 mph 14 mph 88% 0.000 in 0.00 W/m2
05:04 68.0 °F 64.0 °F 30.0 in SE 9 mph 14 mph 88% 0.000 in 0.00 W/m2
05:09 68.0 °F 64.0 °F 30.0 in SE 14 mph 14 mph 88% 0.000 in 0.00 W/m2
05:14 68.0 °F 64.0 °F 30.0 in SSE 12 mph 14 mph 88% 0.000 in 0.00 W/m2
05:19 68.0 °F 64.0 °F 30.0 in SE 11 mph 13 mph 88% 0.000 in 0.00 W/m2
05:24 68.0 °F 64.0 °F 30.0 in SSE 10 mph 11 mph 88% 0.000 in 0.00 W/m2
05:29 68.0 °F 64.0 °F 30.0 in SE 11 mph 11 mph 89% 0.000 in 0.00 W/m2
05:34 68.0 °F 64.0 °F 30.0 in SSE 15 mph 15 mph 89% 0.000 in 0.00 W/m2
05:39 68.0 °F 64.0 °F 30.0 in SSE 14 mph 14 mph 89% 0.000 in 0.00 W/m2
05:44 68.0 °F 64.0 °F 30.0 in SSE 12 mph 14 mph 89% 0.000 in 0.00 W/m2
05:49 68.0 °F 64.0 °F 30.0 in SSE 12 mph 12 mph 89% 0.000 in 0.00 W/m2
05:54 68.0 °F 64.0 °F 30.0 in SE 13 mph 13 mph 89% 0.000 in 0.00 W/m2
05:59 68.0 °F 64.0 °F 30.0 in SSE 15 mph 17 mph 89% 0.000 in 0.00 W/m2
06:04 68.0 °F 64.0 °F 30.0 in SE 17 mph 17 mph 89% 0.000 in 0.00 W/m2
06:09 68.0 °F 64.0 °F 30.0 in SE 18 mph 18 mph 89% 0.000 in 0.00 W/m2
06:14 68.0 °F 64.0 °F 30.0 in SSE 12 mph 18 mph 89% 0.000 in 0.00 W/m2
06:19 68.0 °F 64.0 °F 30.0 in SSE 15 mph 15 mph 89% 0.000 in 0.00 W/m2
06:24 68.0 °F 64.0 °F 30.0 in SSE 16 mph 17 mph 89% 0.000 in 0.00 W/m2
06:29 68.0 °F 64.0 °F 30.0 in SSE 13 mph 14 mph 89% 0.000 in 0.00 W/m2
06:34 68.0 °F 64.0 °F 30.0 in SSE 15 mph 15 mph 89% 0.000 in 0.00 W/m2
06:39 68.0 °F 64.0 °F 30.0 in SSE 19 mph 19 mph 89% 0.000 in 0.00 W/m2
06:44 68.0 °F 64.0 °F 30.0 in SSE 16 mph 16 mph 89% 0.000 in 0.00 W/m2
06:49 68.0 °F 64.0 °F 30.0 in SSE 13 mph 16 mph 88% 0.000 in 5.00 W/m2
06:54 68.0 °F 64.0 °F 30.0 in SSE 15 mph 15 mph 88% 0.000 in 9.00 W/m2
06:59 68.0 °F 64.0 °F 30.0 in SE 13 mph 14 mph 88% 0.000 in 11.00 W/m2
07:04 68.0 °F 64.0 °F 30.0 in SSE 15 mph 15 mph 88% 0.000 in 14.00 W/m2
07:09 68.0 °F 64.0 °F 30.0 in SSE 13 mph 14 mph 88% 0.000 in 16.00 W/m2
07:14 68.0 °F 64.0 °F 30.0 in SSE 16 mph 16 mph 88% 0.000 in 19.00 W/m2
07:19 68.0 °F 64.0 °F 30.0 in SSE 14 mph 15 mph 88% 0.000 in 23.00 W/m2
07:24 68.0 °F 64.0 °F 30.0 in SSE 13 mph 15 mph 88% 0.000 in 28.00 W/m2
07:29 68.0 °F 64.0 °F 30.0 in SE 14 mph 14 mph 88% 0.000 in 32.00 W/m2
07:34 68.0 °F 64.0 °F 30.0 in SSE 11 mph 14 mph 88% 0.000 in 42.00 W/m2
07:39 68.0 °F 64.0 °F 30.0 in SSE 13 mph 14 mph 88% 0.000 in 49.00 W/m2
07:44 68.0 °F 64.0 °F 30.0 in SSE 11 mph 13 mph 88% 0.000 in 116.00 W/m2
07:49 68.0 °F 64.0 °F 30.0 in SSE 15 mph 15 mph 88% 0.000 in 130.00 W/m2
07:54 69.0 °F 65.0 °F 30.1 in SSE 14 mph 14 mph 88% 0.000 in 139.00 W/m2
07:59 69.0 °F 65.0 °F 30.1 in SSE 13 mph 13 mph 88% 0.000 in 158.00 W/m2
08:04 69.0 °F 65.0 °F 30.1 in SSE 15 mph 16 mph 88% 0.000 in 156.00 W/m2
08:09 69.0 °F 66.0 °F 30.1 in SSE 15 mph 17 mph 88% 0.000 in 186.00 W/m2
08:14 70.0 °F 66.0 °F 30.1 in SSE 20 mph 20 mph 88% 0.000 in 193.00 W/m2
08:19 70.0 °F 66.0 °F 30.1 in SSE 15 mph 21 mph 88% 0.000 in 216.00 W/m2
08:24 70.0 °F 66.0 °F 30.1 in SSE 15 mph 16 mph 87% 0.000 in 163.00 W/m2
08:29 70.0 °F 66.0 °F 30.1 in SSE 20 mph 21 mph 87% 0.000 in 214.00 W/m2
08:34 71.0 °F 66.0 °F 30.1 in SSE 19 mph 21 mph 86% 0.000 in 174.00 W/m2
08:39 71.0 °F 67.0 °F 30.1 in SSE 15 mph 21 mph 86% 0.000 in 244.00 W/m2
08:44 71.0 °F 67.0 °F 30.1 in SSE 14 mph 16 mph 86% 0.000 in 234.00 W/m2
08:49 71.0 °F 66.0 °F 30.1 in SSE 15 mph 18 mph 85% 0.000 in 234.00 W/m2
08:54 71.0 °F 67.0 °F 30.1 in SSE 20 mph 20 mph 85% 0.000 in 302.00 W/m2
08:59 72.0 °F 67.0 °F 30.1 in SSE 16 mph 20 mph 84% 0.000 in 350.00 W/m2
09:04 72.0 °F 67.0 °F 30.1 in SSE 17 mph 17 mph 84% 0.000 in 350.00 W/m2
09:09 72.0 °F 67.0 °F 30.1 in SE 15 mph 17 mph 84% 0.000 in 207.00 W/m2
09:14 72.0 °F 67.0 °F 30.1 in SSE 17 mph 17 mph 83% 0.000 in 309.00 W/m2
09:19 73.0 °F 68.0 °F 30.1 in SSE 16 mph 20 mph 83% 0.000 in 283.00 W/m2
09:24 73.0 °F 68.0 °F 30.1 in SSE 18 mph 20 mph 82% 0.000 in 244.00 W/m2
09:29 74.0 °F 68.0 °F 30.1 in SSE 23 mph 23 mph 81% 0.000 in 237.00 W/m2
09:34 74.0 °F 68.0 °F 30.1 in SSE 21 mph 21 mph 80% 0.000 in 580.00 W/m2
09:39 75.0 °F 68.0 °F 30.1 in SSE 22 mph 22 mph 79% 0.000 in 285.00 W/m2
09:44 75.0 °F 68.0 °F 30.1 in SSE 21 mph 22 mph 79% 0.000 in 265.00 W/m2
09:49 75.0 °F 68.0 °F 30.1 in SSE 16 mph 18 mph 78% 0.000 in 236.00 W/m2
09:54 75.0 °F 67.0 °F 30.1 in SSE 18 mph 20 mph 77% 0.000 in 271.00 W/m2
09:59 75.0 °F 68.0 °F 30.1 in SSE 16 mph 18 mph 77% 0.000 in 225.00 W/m2
10:04 76.0 °F 68.0 °F 30.1 in SSE 19 mph 20 mph 76% 0.000 in 260.00 W/m2
10:09 76.0 °F 68.0 °F 30.1 in SSE 21 mph 23 mph 75% 0.000 in 737.00 W/m2
10:14 77.0 °F 68.0 °F 30.1 in SSE 18 mph 23 mph 74% 0.000 in 737.00 W/m2
10:19 77.0 °F 67.0 °F 30.1 in SSE 27 mph 27 mph 73% 0.000 in 520.00 W/m2
10:24 77.0 °F 67.0 °F 30.1 in SSE 23 mph 27 mph 71% 0.000 in 272.00 W/m2
10:29 77.0 °F 66.0 °F 30.1 in South 24 mph 24 mph 71% 0.000 in 225.00 W/m2
10:34 77.0 °F 67.0 °F 30.1 in SSE 19 mph 26 mph 71% 0.000 in 229.00 W/m2
10:39 77.0 °F 66.0 °F 30.1 in South 29 mph 29 mph 70% 0.000 in 724.00 W/m2
10:44 77.0 °F 66.0 °F 30.1 in South 25 mph 25 mph 70% 0.000 in 738.00 W/m2
10:49 78.0 °F 67.0 °F 30.1 in SSE 21 mph 26 mph 70% 0.000 in 749.00 W/m2
10:54 79.0 °F 67.0 °F 30.1 in SSE 24 mph 26 mph 68% 0.000 in 780.00 W/m2
10:59 79.0 °F 67.0 °F 30.1 in South 20 mph 20 mph 67% 0.000 in 780.00 W/m2
11:04 79.0 °F 67.0 °F 30.1 in SSE 23 mph 23 mph 66% 0.000 in 512.00 W/m2
11:09 79.0 °F 67.0 °F 30.1 in SSE 22 mph 24 mph 66% 0.000 in 294.00 W/m2
11:14 79.0 °F 66.0 °F 30.0 in SSE 22 mph 24 mph 66% 0.000 in 376.00 W/m2
11:19 78.0 °F 66.0 °F 30.0 in SSE 23 mph 23 mph 67% 0.000 in 327.00 W/m2
11:24 78.0 °F 66.0 °F 30.0 in SSE 19 mph 21 mph 67% 0.000 in 754.00 W/m2
11:29 78.0 °F 67.0 °F 30.0 in SSE 21 mph 25 mph 68% 0.000 in 788.00 W/m2
11:34 79.0 °F 67.0 °F 30.0 in SSE 18 mph 18 mph 67% 0.000 in 928.00 W/m2
11:39 80.0 °F 67.0 °F 30.0 in SSE 20 mph 24 mph 66% 0.000 in 928.00 W/m2
11:44 80.0 °F 68.0 °F 30.0 in SSE 22 mph 25 mph 66% 0.000 in 937.00 W/m2
11:49 80.0 °F 68.0 °F 30.0 in SSE 23 mph 26 mph 65% 0.000 in 937.00 W/m2
11:54 80.0 °F 68.0 °F 30.0 in SSE 18 mph 21 mph 65% 0.000 in 403.00 W/m2
11:59 80.0 °F 67.0 °F 30.0 in SSE 22 mph 23 mph 65% 0.000 in 271.00 W/m2
12:04 80.0 °F 67.0 °F 30.0 in SSE 20 mph 23 mph 65% 0.000 in 362.00 W/m2
12:09 81.0 °F 68.0 °F 30.0 in South 16 mph 22 mph 66% 0.000 in 923.00 W/m2
12:14 81.0 °F 68.0 °F 30.0 in South 20 mph 29 mph 65% 0.000 in 907.00 W/m2
12:19 81.0 °F 67.0 °F 30.0 in South 16 mph 18 mph 62% 0.000 in 420.00 W/m2
12:24 81.0 °F 66.0 °F 30.0 in South 19 mph 19 mph 60% 0.000 in 336.00 W/m2
12:29 81.0 °F 66.0 °F 30.0 in SSE 21 mph 22 mph 60% 0.000 in 339.00 W/m2
12:34 81.0 °F 66.0 °F 30.0 in SSE 21 mph 22 mph 61% 0.000 in 492.00 W/m2
12:39 81.0 °F 66.0 °F 30.0 in SSE 19 mph 21 mph 60% 0.000 in 501.00 W/m2
12:44 82.0 °F 67.0 °F 30.0 in South 16 mph 19 mph 60% 0.000 in 420.00 W/m2
12:49 82.0 °F 66.0 °F 30.0 in South 17 mph 17 mph 58% 0.000 in 420.00 W/m2
12:54 82.0 °F 66.0 °F 30.0 in SSE 16 mph 17 mph 58% 0.000 in 420.00 W/m2
12:59 82.0 °F 66.0 °F 30.0 in SSE 19 mph 20 mph 59% 0.000 in 338.00 W/m2
13:04 82.0 °F 66.0 °F 30.0 in SSE 17 mph 17 mph 60% 0.000 in 482.00 W/m2
13:09 82.0 °F 67.0 °F 30.0 in SSE 16 mph 16 mph 61% 0.000 in 874.00 W/m2
13:14 82.0 °F 66.0 °F 30.0 in South 15 mph 19 mph 59% 0.000 in 436.00 W/m2
13:19 82.0 °F 66.0 °F 30.0 in South 13 mph 19 mph 59% 0.000 in 401.00 W/m2
13:24 82.0 °F 66.0 °F 30.0 in South 19 mph 19 mph 59% 0.000 in 459.00 W/m2
13:29 81.0 °F 66.0 °F 30.0 in SSE 17 mph 19 mph 59% 0.000 in 399.00 W/m2
13:34 82.0 °F 66.0 °F 30.0 in South 18 mph 24 mph 59% 0.000 in 638.00 W/m2
13:39 82.0 °F 66.0 °F 30.0 in South 17 mph 17 mph 58% 0.000 in 450.00 W/m2
13:44 82.0 °F 66.0 °F 30.0 in SSE 12 mph 14 mph 59% 0.000 in 232.00 W/m2
13:49 82.0 °F 66.0 °F 30.0 in SSE 13 mph 15 mph 59% 0.000 in 287.00 W/m2
13:54 82.0 °F 66.0 °F 30.0 in SSE 16 mph 17 mph 60% 0.000 in 156.00 W/m2
13:59 81.0 °F 66.0 °F 30.0 in SSE 19 mph 19 mph 61% 0.000 in 185.00 W/m2
14:04 81.0 °F 66.0 °F 30.0 in SSE 15 mph 18 mph 62% 0.000 in 197.00 W/m2
14:09 80.0 °F 66.0 °F 30.0 in SSE 15 mph 18 mph 62% 0.000 in 178.00 W/m2
14:14 80.0 °F 66.0 °F 30.0 in SSE 16 mph 19 mph 63% 0.000 in 109.00 W/m2
14:19 80.0 °F 66.0 °F 30.0 in SSE 17 mph 19 mph 63% 0.000 in 188.00 W/m2
14:24 80.0 °F 66.0 °F 30.0 in South 18 mph 19 mph 63% 0.000 in 197.00 W/m2
14:29 80.0 °F 66.0 °F 30.0 in SSE 16 mph 16 mph 64% 0.000 in 257.00 W/m2
14:34 80.0 °F 67.0 °F 30.0 in SSE 16 mph 17 mph 64% 0.000 in 334.00 W/m2
14:39 80.0 °F 67.0 °F 30.0 in SSE 20 mph 20 mph 64% 0.000 in 362.00 W/m2
14:44 81.0 °F 68.0 °F 30.0 in SSE 19 mph 19 mph 65% 0.000 in 795.00 W/m2
14:49 81.0 °F 68.0 °F 30.0 in SE 21 mph 21 mph 64% 0.000 in 301.00 W/m2
14:54 81.0 °F 68.0 °F 30.0 in SSE 15 mph 21 mph 65% 0.000 in 772.00 W/m2
14:59 81.0 °F 68.0 °F 30.0 in SSE 19 mph 19 mph 65% 0.000 in 647.00 W/m2
15:04 81.0 °F 68.0 °F 30.0 in SE 21 mph 23 mph 65% 0.000 in 701.00 W/m2
15:09 82.0 °F 67.0 °F 30.0 in SSE 21 mph 23 mph 62% 0.000 in 700.00 W/m2
15:14 82.0 °F 67.0 °F 30.0 in SSE 17 mph 22 mph 61% 0.000 in 163.00 W/m2
15:19 81.0 °F 67.0 °F 30.0 in SSE 19 mph 19 mph 62% 0.000 in 204.00 W/m2
15:24 81.0 °F 67.0 °F 30.0 in SSE 23 mph 23 mph 63% 0.000 in 204.00 W/m2
15:29 80.0 °F 67.0 °F 30.0 in SSE 16 mph 23 mph 63% 0.000 in 185.00 W/m2
15:34 80.0 °F 66.0 °F 30.0 in SSE 18 mph 18 mph 63% 0.000 in 251.00 W/m2
15:39 80.0 °F 66.0 °F 30.0 in South 16 mph 18 mph 63% 0.000 in 227.00 W/m2
15:44 80.0 °F 66.0 °F 30.0 in SSE 13 mph 16 mph 63% 0.000 in 309.00 W/m2
15:49 80.0 °F 67.0 °F 30.0 in SSE 12 mph 16 mph 64% 0.000 in 265.00 W/m2
15:54 80.0 °F 66.0 °F 30.0 in SSE 20 mph 20 mph 63% 0.000 in 144.00 W/m2
15:59 80.0 °F 66.0 °F 30.0 in SSE 17 mph 20 mph 63% 0.000 in 297.00 W/m2
16:04 80.0 °F 66.0 °F 30.0 in SSE 17 mph 20 mph 63% 0.000 in 297.00 W/m2
16:09 80.0 °F 66.0 °F 30.0 in SSE 17 mph 18 mph 63% 0.000 in 244.00 W/m2
16:14 79.0 °F 66.0 °F 30.0 in SSE 15 mph 15 mph 63% 0.000 in 213.00 W/m2
16:19 79.0 °F 66.0 °F 30.0 in SSE 17 mph 20 mph 63% 0.000 in 211.00 W/m2
16:24 79.0 °F 65.0 °F 30.0 in SSE 15 mph 20 mph 62% 0.000 in 262.00 W/m2
16:29 79.0 °F 65.0 °F 30.0 in SSE 16 mph 19 mph 62% 0.000 in 116.00 W/m2
16:34 79.0 °F 65.0 °F 30.0 in SSE 19 mph 19 mph 62% 0.000 in 137.00 W/m2
16:39 79.0 °F 65.0 °F 30.0 in SSE 16 mph 17 mph 61% 0.000 in 206.00 W/m2
16:44 79.0 °F 65.0 °F 30.0 in SSE 17 mph 19 mph 61% 0.000 in 139.00 W/m2
16:49 79.0 °F 64.0 °F 30.0 in SSE 15 mph 19 mph 61% 0.000 in 118.00 W/m2
16:54 79.0 °F 64.0 °F 30.0 in SSE 15 mph 18 mph 61% 0.000 in 83.00 W/m2
16:59 79.0 °F 64.0 °F 30.0 in SSE 12 mph 18 mph 60% 0.000 in 76.00 W/m2
17:04 79.0 °F 64.0 °F 30.0 in SSE 12 mph 14 mph 60% 0.000 in 88.00 W/m2
17:09 78.0 °F 64.0 °F 30.0 in SSE 14 mph 16 mph 61% 0.000 in 79.00 W/m2
17:14 78.0 °F 64.0 °F 30.0 in SSE 17 mph 17 mph 61% 0.000 in 62.00 W/m2
17:19 78.0 °F 64.0 °F 30.0 in SSE 12 mph 15 mph 61% 0.000 in 111.00 W/m2
17:24 78.0 °F 64.0 °F 30.0 in South 14 mph 17 mph 61% 0.000 in 67.00 W/m2
17:29 78.0 °F 64.0 °F 30.0 in SSE 12 mph 12 mph 62% 0.000 in 69.00 W/m2
17:34 78.0 °F 63.0 °F 30.0 in SSE 11 mph 17 mph 61% 0.000 in 74.00 W/m2
17:39 78.0 °F 64.0 °F 30.0 in SSE 13 mph 17 mph 62% 0.000 in 74.00 W/m2
17:44 78.0 °F 64.0 °F 30.0 in SSE 17 mph 17 mph 62% 0.000 in 67.00 W/m2
17:49 78.0 °F 63.0 °F 30.0 in SSE 14 mph 17 mph 61% 0.000 in 51.00 W/m2
17:54 77.0 °F 63.0 °F 30.0 in SSE 17 mph 17 mph 61% 0.000 in 46.00 W/m2
17:59 77.0 °F 63.0 °F 30.0 in SSE 14 mph 15 mph 61% 0.000 in 32.00 W/m2
18:04 77.0 °F 63.0 °F 30.0 in SSE 17 mph 17 mph 61% 0.000 in 25.00 W/m2
18:09 77.0 °F 63.0 °F 30.0 in SSE 13 mph 17 mph 62% 0.000 in 19.00 W/m2
18:14 77.0 °F 63.0 °F 30.0 in SSE 15 mph 20 mph 63% 0.000 in 7.00 W/m2
18:19 77.0 °F 64.0 °F 30.0 in SSE 16 mph 17 mph 64% 0.000 in 0.00 W/m2
18:24 77.0 °F 64.0 °F 30.0 in SSE 14 mph 14 mph 64% 0.000 in 0.00 W/m2
18:29 77.0 °F 65.0 °F 30.0 in SSE 18 mph 18 mph 67% 0.000 in 0.00 W/m2
18:34 76.0 °F 65.0 °F 30.0 in South 13 mph 13 mph 68% 0.000 in 0.00 W/m2
18:39 76.0 °F 65.0 °F 30.0 in SSE 11 mph 12 mph 68% 0.000 in 0.00 W/m2
18:44 76.0 °F 65.0 °F 30.0 in SSE 10 mph 11 mph 69% 0.000 in 0.00 W/m2
18:49 76.0 °F 65.0 °F 30.0 in SSE 13 mph 15 mph 70% 0.000 in 0.00 W/m2
18:54 75.0 °F 65.0 °F 30.0 in SSE 14 mph 18 mph 71% 0.000 in 0.00 W/m2
18:59 75.0 °F 65.0 °F 30.0 in SSE 13 mph 15 mph 71% 0.000 in 0.00 W/m2
19:04 75.0 °F 65.0 °F 30.0 in SSE 14 mph 17 mph 71% 0.000 in 0.00 W/m2
19:09 75.0 °F 65.0 °F 30.0 in SSE 10 mph 12 mph 72% 0.000 in 0.00 W/m2
19:14 75.0 °F 65.0 °F 30.0 in SSE 11 mph 11 mph 72% 0.000 in 0.00 W/m2
19:19 75.0 °F 65.0 °F 30.0 in SE 9 mph 9 mph 73% 0.000 in 0.00 W/m2
19:24 74.0 °F 65.0 °F 30.0 in SE 10 mph 10 mph 73% 0.000 in 0.00 W/m2
19:29 74.0 °F 65.0 °F 30.0 in SSE 9 mph 11 mph 74% 0.000 in 0.00 W/m2
19:34 74.0 °F 65.0 °F 30.0 in SSE 6 mph 9 mph 75% 0.000 in 0.00 W/m2
19:39 74.0 °F 65.0 °F 30.0 in SSE 9 mph 9 mph 75% 0.000 in 0.00 W/m2
19:44 74.0 °F 65.0 °F 30.0 in SSE 11 mph 11 mph 75% 0.000 in 0.00 W/m2
19:49 74.0 °F 66.0 °F 30.0 in SE 9 mph 11 mph 76% 0.000 in 0.00 W/m2
19:54 74.0 °F 66.0 °F 30.1 in SE 9 mph 10 mph 76% 0.000 in 0.00 W/m2
19:59 73.0 °F 66.0 °F 30.1 in SSE 11 mph 11 mph 77% 0.000 in 0.00 W/m2
20:04 73.0 °F 66.0 °F 30.1 in SSE 9 mph 11 mph 77% 0.000 in 0.00 W/m2
20:09 73.0 °F 66.0 °F 30.1 in SE 13 mph 13 mph 78% 0.000 in 0.00 W/m2
20:14 73.0 °F 66.0 °F 30.1 in SE 9 mph 13 mph 78% 0.000 in 0.00 W/m2
20:19 73.0 °F 66.0 °F 30.1 in SE 10 mph 11 mph 78% 0.000 in 0.00 W/m2
20:24 73.0 °F 66.0 °F 30.1 in SE 12 mph 13 mph 79% 0.000 in 0.00 W/m2
20:29 73.0 °F 66.0 °F 30.1 in SE 10 mph 10 mph 79% 0.000 in 0.00 W/m2
20:34 72.0 °F 66.0 °F 30.1 in SSE 9 mph 9 mph 79% 0.000 in 0.00 W/m2
20:39 72.0 °F 66.0 °F 30.1 in SSE 11 mph 13 mph 80% 0.000 in 0.00 W/m2
20:44 72.0 °F 66.0 °F 30.1 in SE 10 mph 10 mph 80% 0.000 in 0.00 W/m2
20:49 72.0 °F 66.0 °F 30.1 in SSE 8 mph 12 mph 80% 0.000 in 0.00 W/m2
20:54 72.0 °F 66.0 °F 30.1 in SE 10 mph 11 mph 81% 0.000 in 0.00 W/m2
20:59 72.0 °F 66.0 °F 30.1 in SSE 10 mph 14 mph 81% 0.000 in 0.00 W/m2
21:04 72.0 °F 66.0 °F 30.1 in SE 10 mph 14 mph 81% 0.000 in 0.00 W/m2
21:09 72.0 °F 66.0 °F 30.1 in SE 10 mph 10 mph 82% 0.000 in 0.00 W/m2
21:14 71.0 °F 66.0 °F 30.1 in SE 10 mph 11 mph 82% 0.000 in 0.00 W/m2
21:19 71.0 °F 66.0 °F 30.1 in SE 10 mph 10 mph 83% 0.000 in 0.00 W/m2
21:24 71.0 °F 66.0 °F 30.1 in SE 13 mph 13 mph 83% 0.000 in 0.00 W/m2
21:29 71.0 °F 66.0 °F 30.1 in SE 11 mph 12 mph 83% 0.000 in 0.00 W/m2
21:34 71.0 °F 66.0 °F 30.1 in SSE 11 mph 11 mph 83% 0.000 in 0.00 W/m2
21:39 71.0 °F 66.0 °F 30.1 in SSE 8 mph 11 mph 83% 0.000 in 0.00 W/m2
21:44 71.0 °F 66.0 °F 30.1 in SSE 9 mph 10 mph 84% 0.000 in 0.00 W/m2
21:49 71.0 °F 66.0 °F 30.1 in SSE 5 mph 6 mph 84% 0.000 in 0.00 W/m2
21:54 71.0 °F 66.0 °F 30.1 in South 6 mph 7 mph 84% 0.000 in 0.00 W/m2
21:59 71.0 °F 66.0 °F 30.1 in South 5 mph 6 mph 84% 0.000 in 0.00 W/m2
22:04 71.0 °F 66.0 °F 30.1 in SSE 8 mph 8 mph 84% 0.000 in 0.00 W/m2
22:09 71.0 °F 66.0 °F 30.1 in SSE 5 mph 5 mph 84% 0.000 in 0.00 W/m2
22:14 71.0 °F 66.0 °F 30.1 in SSE 8 mph 9 mph 85% 0.000 in 0.00 W/m2
22:19 71.0 °F 67.0 °F 30.1 in SSE 6 mph 6 mph 85% 0.000 in 0.00 W/m2
22:24 71.0 °F 67.0 °F 30.1 in SSE 7 mph 7 mph 85% 0.000 in 0.00 W/m2
22:29 71.0 °F 67.0 °F 30.1 in SSE 8 mph 8 mph 85% 0.000 in 0.00 W/m2
22:34 71.0 °F 67.0 °F 30.1 in SSE 8 mph 8 mph 85% 0.000 in 0.00 W/m2
22:39 71.0 °F 67.0 °F 30.1 in SSE 11 mph 13 mph 85% 0.000 in 0.00 W/m2
22:44 71.0 °F 67.0 °F 30.1 in SSE 9 mph 11 mph 85% 0.000 in 0.00 W/m2
22:49 71.0 °F 67.0 °F 30.1 in SSE 11 mph 11 mph 85% 0.000 in 0.00 W/m2
22:54 71.0 °F 67.0 °F 30.1 in SSE 13 mph 14 mph 86% 0.000 in 0.00 W/m2
22:59 72.0 °F 67.0 °F 30.1 in SSE 10 mph 12 mph 86% 0.000 in 0.00 W/m2
23:04 72.0 °F 67.0 °F 30.1 in SSE 10 mph 11 mph 86% 0.000 in 0.00 W/m2
23:09 72.0 °F 67.0 °F 30.1 in SSE 8 mph 11 mph 86% 0.000 in 0.00 W/m2
23:14 72.0 °F 67.0 °F 30.1 in SSE 13 mph 13 mph 86% 0.000 in 0.00 W/m2
23:19 72.0 °F 67.0 °F 30.1 in SSE 11 mph 13 mph 86% 0.000 in 0.00 W/m2
23:24 72.0 °F 67.0 °F 30.1 in SSE 9 mph 9 mph 86% 0.000 in 0.00 W/m2
23:29 72.0 °F 67.0 °F 30.1 in SSE 9 mph 9 mph 86% 0.000 in 0.00 W/m2
23:34 72.0 °F 67.0 °F 30.1 in SSE 8 mph 8 mph 86% 0.000 in 0.00 W/m2
23:39 71.0 °F 67.0 °F 30.1 in SSE 9 mph 9 mph 86% 0.000 in 0.00 W/m2
23:44 71.0 °F 67.0 °F 30.1 in SE 10 mph 12 mph 86% 0.000 in 0.00 W/m2
23:49 71.0 °F 67.0 °F 30.1 in SSE 9 mph 10 mph 86% 0.000 in 0.00 W/m2
23:54 71.0 °F 67.0 °F 30.1 in SE 10 mph 10 mph 86% 0.000 in 0.00 W/m2
23:59 71.0 °F 67.0 °F 30.1 in SSE 10 mph 10 mph 86% 0.000 in 0.00 W/m2
Villages of Bridgestone, Spring, TX USA
Compliments of Weather Underground - 4 mb